Location: Christian Reformed Church
(43.0975°N, 93.8113°W)
Time: 19:46:03
(UTC+00:00)

IRS-P3 - Pass Details

Date: 15 March 2026
Orbit: 810 x 816 km, 99.0° (Epoch: 20 April)

Event Time Altitude Azimuth Distance (km) Brightness Sun altitude
Rises 01:37:22 0° 203° (SSW) 3,328 7.5 -14.8°
Reaches altitude 10° 01:40:17 10° 219° (SW) 2,402 6.9 -15.3°
Maximum altitude 01:44:12 21° 267° (W) 1,777 6.8 -16.0°
Drops below altitude 10° 01:48:08 10° 315° (NW) 2,414 7.5 -16.7°
Sets 01:51:06 0° 332° (NNW) 3,351 8.0 -17.2°
